W5CGC Weather Reports


time (UTC)temp
F
wind
direction
speed
knots
gust
knots
rain 1hr
in
rain 24hr
in
rain mn
in
humidity
%
barometer
mb
20220524015017 74 91 0.0 2.6 0.00 0.02 0.02 63 1012.8
20220524014528 74 0 0.0 2.6 0.00 0.02 0.02 63 1012.7
20220524014017 74 0 0.0 2.6 0.00 0.02 0.02 63 1012.5
20220524013520 74 82 0.0 2.6 0.00 0.02 0.02 62 1012.5
20220524013026 74 94 0.0 2.6 0.00 0.02 0.02 62 1012.3
20220524012521 75 0 0.0 3.5 0.00 0.02 0.02 62 1012.3
20220524012019 75 87 0.9 3.5 0.00 0.02 0.02 62 1012.2
20220524011629 75 67 0.9 2.6 0.00 0.02 0.02 61 1012.3
20220524011020 75 211 0.0 2.6 0.00 0.02 0.02 61 1012.3
20220524010518 75 75 0.9 2.6 0.00 0.02 0.02 61 1012.2
20220524010041 75 84 0.0 2.6 0.00 0.02 0.02 62 1012.2
20220524005517 75 59 0.9 2.6 0.00 0.02 0.02 61 1012.2
20220524005020 75 69 0.9 3.5 0.00 0.02 0.02 61 1012.2
20220524004522 75 0 0.0 3.5 0.00 0.02 0.02 61 1012.4
20220524004021 75 63 0.9 2.6 0.00 0.02 0.02 61 1012.3
20220524003520 76 0 0.0 2.6 0.00 0.02 0.02 61 1012.3
20220524003023 76 100 0.9 2.6 0.00 0.02 0.02 61 1012.4
20220524002521 76 68 0.9 2.6 0.00 0.02 0.02 61 1012.4
20220524002023 76 77 0.9 2.6 0.00 0.02 0.02 60 1012.4
20220524001524 76 79 0.9 2.6 0.00 0.02 0.02 60 1012.5
20220524001020 76 89 0.9 1.7 0.00 0.02 0.02 60 1012.4
20220524000518 76 83 0.0 1.7 0.00 0.02 0.02 60 1012.5
20220524000030 76 0 0.0 3.5 0.00 0.02 0.02 60 1012.7
20220523235519 76 0 0.0 3.5 0.00 0.02 0.02 60 1012.7
20220523235018 76 74 0.9 3.5 0.00 0.02 0.02 60 1012.7
20220523234525 76 84 0.9 3.5 0.00 0.02 0.02 59 1012.7
20220523234018 76 94 1.7 3.5 0.00 0.02 0.02 59 1012.7
20220523233521 76 53 0.9 2.6 0.00 0.02 0.02 60 1012.6
20220523233032 76 77 1.7 2.6 0.00 0.02 0.02 60 1012.7
20220523232518 76 108 0.0 1.7 0.00 0.02 0.02 60 1012.8
20220523232019 76 58 0.0 2.6 0.00 0.02 0.02 60 1012.9
20220523231529 76 83 0.0 2.6 0.00 0.02 0.02 60 1013.1
20220523231020 76 88 0.0 2.6 0.00 0.02 0.02 60 1013.2
20220523230519 76 82 0.9 2.6 0.00 0.02 0.02 60 1013.1
20220523230039 76 60 0.9 2.6 0.00 0.02 0.02 60 1013.2
20220523225518 76 68 0.0 1.7 0.00 0.02 0.02 60 1013.2
20220523225019 75 86 0.9 1.7 0.00 0.02 0.02 59 1013.2
20220523224525 76 60 0.9 1.7 0.00 0.02 0.02 59 1013.3
20220523224018 76 77 0.0 1.7 0.00 0.02 0.02 60 1013.3
20220523223518 76 0 0.0 1.7 0.00 0.02 0.02 59 1013.3
20220523223029 76 66 0.0 1.7 0.00 0.02 0.02 59 1013.4
20220523222517 76 307 0.9 2.6 0.00 0.02 0.02 59 1013.5
20220523222018 76 84 0.9 2.6 0.00 0.02 0.02 59 1013.5
20220523221540 76 58 0.9 1.7 0.00 0.02 0.02 60 1013.6
20220523221019 76 0 0.0 1.7 0.00 0.02 0.02 60 1013.7
20220523220521 76 91 0.9 3.5 0.00 0.02 0.02 60 1013.7
20220523220032 76 60 0.9 3.5 0.00 0.02 0.02 59 1013.7
20220523215518 76 0 0.9 1.7 0.00 0.02 0.02 59 1013.8
20220523215020 76 68 0.9 2.6 0.00 0.02 0.02 59 1013.7
20220523214523 76 0 0.0 2.6 0.00 0.02 0.02 59 1013.8
20220523214020 76 77 0.9 3.5 0.00 0.02 0.02 59 1013.8
20220523213519 76 81 0.9 3.5 0.00 0.02 0.02 59 1013.7
20220523213026 76 0 0.9 2.6 0.00 0.02 0.02 59 1013.5
20220523212520 76 72 0.9 2.6 0.00 0.02 0.02 59 1013.6
20220523212020 76 86 0.0 1.7 0.00 0.02 0.02 60 1013.7
20220523211534 75 110 0.0 1.7 0.00 0.02 0.02 59 1013.6
20220523211017 76 0 0.0 2.6 0.00 0.02 0.02 59 1013.7
20220523210519 76 56 0.9 2.6 0.00 0.02 0.02 59 1013.7
20220523210030 76 0 0.9 2.6 0.00 0.02 0.02 60 1013.9
20220523205517 75 0 0.0 3.5 0.00 0.02 0.02 60 1013.9
20220523205019 75 95 0.9 3.5 0.00 0.02 0.02 60 1013.9
20220523204524 75 80 0.9 2.6 0.00 0.02 0.02 59 1013.9
20220523204021 75 70 0.9 4.3 0.00 0.02 0.02 60 1014.0
20220523203518 75 10 1.7 4.3 0.00 0.02 0.02 59 1014.1
20220523203023 75 68 1.7 3.5 0.00 0.02 0.02 59 1014.2
20220523202520 75 63 1.7 3.5 0.00 0.02 0.02 59 1014.3
20220523202018 75 96 0.9 3.5 0.00 0.02 0.02 59 1014.4
20220523201523 76 78 0.9 3.5 0.00 0.02 0.02 59 1014.4
20220523201020 75 98 0.9 6.1 0.00 0.02 0.02 59 1014.5
20220523200520 75 63 0.9 6.1 0.00 0.02 0.02 60 1014.5
20220523200021 75 96 1.7 6.1 0.00 0.02 0.02 59 1014.6
20220523195520 76 122 1.7 5.2 0.00 0.02 0.02 58 1014.8
20220523195018 76 120 0.9 6.1 0.00 0.02 0.02 58 1014.7
20220523194533 76 0 1.7 6.1 0.00 0.02 0.02 59 1014.7
20220523194020 76 77 1.7 5.2 0.00 0.02 0.02 58 1014.7
20220523193519 77 102 1.7 5.2 0.00 0.02 0.02 57 1014.9
20220523193021 77 51 0.9 3.5 0.00 0.02 0.02 58 1015.0
20220523192520 76 75 1.7 5.2 0.00 0.02 0.02 59 1014.9
20220523192018 75 130 1.7 5.2 0.00 0.02 0.02 61 1014.9
20220523191525 75 136 1.7 6.1 0.00 0.02 0.02 62 1015.0
20220523191019 74 65 2.6 6.1 0.00 0.02 0.02 62 1014.9
20220523190520 74 142 2.6 6.1 0.00 0.02 0.02 63 1014.8
20220523190026 74 70 2.6 6.1 0.00 0.02 0.02 63 1015.1
20220523185520 73 89 2.6 5.2 0.00 0.02 0.02 64 1015.2
20220523185019 73 88 1.7 4.3 0.00 0.02 0.02 65 1015.4
20220523184536 72 72 2.6 4.3 0.00 0.02 0.02 66 1015.7
20220523184020 71 67 1.7 4.3 0.00 0.02 0.02 66 1016.0
20220523183519 71 87 1.7 4.3 0.00 0.02 0.02 67 1016.0
20220523183028 71 62 1.7 4.3 0.00 0.02 0.02 68 1016.1
20220523182522 70 77 0.9 3.5 0.00 0.02 0.02 68 1016.2
20220523182016 70 56 1.7 3.5 0.00 0.02 0.02 69 1016.5
20220523181523 70 77 0.9 3.5 0.00 0.02 0.02 69 1016.6
20220523181020 70 44 0.9 3.5 0.00 0.02 0.02 69 1016.7
20220523180520 69 75 0.9 3.5 0.00 0.02 0.02 69 1016.8
20220523180030 69 84 0.9 4.3 0.00 0.02 0.02 69 1017.0
20220523175516 69 89 0.0 4.3 0.00 0.02 0.02 70 1017.2
20220523175020 69 75 0.9 4.3 0.00 0.02 0.02 69 1017.2
20220523174535 69 47 0.0 1.7 0.00 0.02 0.02 70 1017.2
20220523174022 69 0 0.0 1.7 0.00 0.02 0.02 70 1017.3
20220523173518 68 75 0.0 1.7 0.00 0.02 0.02 70 1017.4
20220523173030 68 86 0.9 1.7 0.00 0.02 0.02 70 1017.5
20220523172520 68 0 0.0 2.6 0.00 0.02 0.02 71 1017.6
20220523172033 68 0 0.0 2.6 0.00 0.02 0.02 70 1017.6
20220523171523 68 58 0.9 2.6 0.00 0.02 0.02 71 1017.6
20220523171018 68 114 0.9 2.6 0.00 0.02 0.02 71 1017.6
20220523170516 68 96 0.0 2.6 0.00 0.02 0.02 71 1017.6
20220523170025 68 58 0.0 2.6 0.00 0.02 0.02 71 1017.6
20220523165520 68 0 0.0 2.6 0.00 0.02 0.02 72 1017.6
20220523165020 67 58 0.9 3.5 0.00 0.02 0.02 72 1017.7
20220523164525 67 5 0.0 3.5 0.00 0.02 0.02 72 1017.6
20220523164019 67 72 0.9 2.6 0.00 0.02 0.02 73 1017.7
20220523163519 67 94 0.9 3.5 0.00 0.02 0.02 72 1017.7
20220523163025 67 93 0.9 3.5 0.00 0.02 0.02 73 1017.9
20220523162520 67 0 0.0 4.3 0.00 0.02 0.02 74 1018.0
20220523162019 66 0 0.0 4.3 0.00 0.02 0.02 75 1018.1
20220523161539 66 0 0.0 4.3 0.00 0.02 0.02 76 1018.0
20220523161017 66 137 0.0 3.5 0.00 0.02 0.02 76 1018.0
20220523160521 66 96 0.9 3.5 0.00 0.02 0.02 76 1018.0
20220523160033 65 0 0.9 3.5 0.00 0.02 0.02 76 1018.2
20220523155521 65 0 0.0 1.7 0.00 0.02 0.02 76 1018.3
20220523155020 65 70 0.0 1.7 0.00 0.02 0.02 76 1018.4
20220523154523 65 0 0.0 3.5 0.00 0.02 0.02 76 1018.5
20220523154026 65 0 0.0 3.5 0.00 0.02 0.02 77 1018.6
20220523153528 65 145 0.0 2.6 0.00 0.02 0.02 78 1018.7
20220523153030 65 160 0.0 3.5 0.00 0.02 0.02 78 1018.6
20220523152519 65 0 0.0 3.5 0.00 0.02 0.02 78 1018.8
20220523152017 64 171 0.9 3.5 0.00 0.02 0.02 80 1018.8
20220523151521 64 174 0.0 2.6 0.00 0.02 0.02 80 1018.9
20220523151017 64 0 0.0 0.9 0.00 0.02 0.02 81 1019.1
20220523150533 64 0 0.0 0.9 0.00 0.02 0.02 82 1019.2
20220523150029 64 99 0.0 0.9 0.00 0.02 0.02 83 1019.2
20220523145525 64 0 0.0 0.0 0.00 0.02 0.02 83 1019.2
20220523145020 64 0 0.0 0.9 0.00 0.02 0.02 85 1019.3
20220523144522 64 0 0.0 0.9 0.00 0.02 0.02 85 1019.5
20220523144020 64 0 0.0 0.9 0.00 0.02 0.02 85 1019.5
20220523143520 64 203 0.0 0.9 0.00 0.02 0.02 86 1019.5
20220523143033 63 0 0.0 0.9 0.00 0.02 0.02 86 1019.6
20220523142519 63 0 0.0 0.9 0.00 0.02 0.02 86 1019.5
20220523142019 63 139 0.0 0.9 0.00 0.02 0.02 86 1019.5
20220523141557 63 0 0.0 0.9 0.00 0.02 0.02 86 1019.4
20220523141022 63 80 0.0 0.9 0.00 0.02 0.02 86 1019.5
20220523140526 63 0 0.0 0.9 0.00 0.02 0.02 86 1019.6
20220523140050 63 0 0.0 0.9 0.00 0.02 0.02 86 1019.6
20220523135523 62 0 0.0 0.9 0.00 0.02 0.02 86 1019.6
20220523135018 62 0 0.0 0.9 0.00 0.02 0.02 86 1019.6
20220523134534 62 0 0.0 0.9 0.00 0.02 0.02 86 1019.6
20220523134024 62 0 0.0 0.9 0.00 0.02 0.02 86 1019.5
20220523133521 62 0 0.0 0.0 0.00 0.02 0.02 86 1019.5
20220523133052 61 0 0.0 0.0 0.00 0.02 0.02 86 1019.5
20220523132521 61 0 0.0 0.0 0.00 0.02 0.02 86 1019.4
20220523132020 61 0 0.0 0.0 0.00 0.02 0.02 86 1019.5
20220523131526 61 0 0.0 0.0 0.00 0.02 0.02 86 1019.6
20220523131023 61 0 0.0 0.0 0.00 0.02 0.02 86 1019.7
20220523130523 61 0 0.0 0.0 0.00 0.02 0.02 86 1019.8
20220523130026 61 0 0.0 0.0 0.00 0.02 0.02 86 1019.9
20220523125519 61 0 0.0 0.0 0.00 0.02 0.02 86 1019.8
20220523125019 61 0 0.0 0.9 0.00 0.02 0.02 86 1019.7
20220523124522 61 0 0.0 0.9 0.00 0.02 0.02 86 1019.8
20220523124020 61 0 0.0 0.9 0.00 0.02 0.02 86 1019.8
20220523123516 61 0 0.0 0.9 0.00 0.02 0.02 86 1019.9
20220523123020 61 0 0.0 0.9 0.00 0.02 0.02 86 1020.0
20220523122518 61 0 0.0 0.0 0.00 0.02 0.02 86 1020.0
20220523122019 61 0 0.0 0.0 0.00 0.02 0.02 86 1020.0
20220523121521 61 0 0.0 0.9 0.00 0.02 0.02 86 1019.9
20220523121025 61 0 0.0 0.9 0.00 0.02 0.02 86 1019.7
20220523120518 61 0 0.0 0.9 0.00 0.02 0.02 86 1019.7
20220523120031 60 0 0.0 0.9 0.00 0.02 0.02 86 1019.8
20220523115517 60 0 0.0 0.9 0.00 0.02 0.02 86 1019.6
20220523115018 60 0 0.0 0.9 0.00 0.02 0.02 86 1019.6
20220523114521 60 0 0.0 0.9 0.00 0.02 0.02 86 1019.4
20220523114019 60 0 0.0 0.9 0.00 0.02 0.02 86 1019.3
20220523113519 60 84 0.0 1.7 0.00 0.02 0.02 86 1019.2
20220523113022 60 339 0.0 1.7 0.00 0.02 0.02 86 1019.2
20220523112518 60 347 0.0 1.7 0.00 0.02 0.02 86 1019.2
20220523112023 60 344 0.0 1.7 0.00 0.02 0.02 86 1019.2
20220523111535 60 0 0.0 1.7 0.00 0.02 0.02 86 1019.2
20220523111017 60 0 0.0 2.6 0.00 0.02 0.02 86 1019.1
20220523110517 60 309 0.0 3.5 0.00 0.02 0.02 86 1019.0
20220523110023 60 69 0.0 3.5 0.00 0.02 0.02 86 1018.9
20220523105518 60 352 0.0 2.6 0.00 0.02 0.02 86 1018.9
20220523105019 60 63 0.0 2.6 0.00 0.02 0.02 86 1018.8
20220523104522 60 325 0.0 3.5 0.00 0.02 0.02 86 1018.9
20220523104021 60 349 0.0 3.5 0.00 0.02 0.02 86 1018.7
20220523103517 60 30 0.9 2.6 0.00 0.02 0.02 86 1018.7
20220523103036 60 75 0.0 2.6 0.00 0.02 0.02 86 1018.7
20220523102519 60 59 0.0 2.6 0.00 0.02 0.02 86 1018.8
20220523102018 60 70 0.0 1.7 0.00 0.02 0.02 86 1018.8
20220523101520 60 71 0.0 2.6 0.00 0.02 0.02 86 1018.7
20220523101017 60 0 0.9 3.5 0.00 0.02 0.02 86 1018.7
20220523100521 60 66 0.0 3.5 0.00 0.02 0.02 86 1018.7
20220523100035 60 0 0.0 2.6 0.00 0.02 0.02 86 1018.7
20220523095517 60 73 0.9 2.6 0.00 0.02 0.02 86 1018.5
20220523095017 60 71 0.0 2.6 0.00 0.02 0.02 85 1018.7
20220523094519 59 0 0.0 3.5 0.00 0.02 0.02 85 1018.9
20220523094018 59 354 0.0 3.5 0.00 0.02 0.02 85 1018.8
20220523093517 59 76 0.9 3.5 0.00 0.02 0.02 84 1018.9
20220523093021 59 10 0.0 2.6 0.00 0.02 0.02 84 1018.8
20220523092518 60 72 0.0 2.6 0.00 0.02 0.02 84 1019.0
20220523092017 59 78 0.0 2.6 0.00 0.02 0.02 83 1019.1
20220523091521 59 0 0.0 2.6 0.00 0.02 0.02 82 1019.2
20220523091021 59 307 0.0 1.7 0.00 0.02 0.02 81 1019.1
20220523090516 59 328 0.0 1.7 0.00 0.02 0.02 80 1019.2
20220523090018 59 257 0.0 1.7 0.00 0.02 0.02 80 1019.2
20220523085519 59 0 0.0 2.6 0.00 0.02 0.02 79 1019.3
20220523085020 59 63 0.0 2.6 0.00 0.02 0.02 78 1019.3
20220523084525 60 309 0.0 1.7 0.00 0.02 0.02 78 1019.3
20220523084019 60 285 0.0 1.7 0.01 0.02 0.02 78 1019.3
20220523083518 60 52 0.0 2.6 0.01 0.02 0.02 77 1019.5
20220523083023 60 335 0.0 2.6 0.01 0.02 0.02 77 1019.5
20220523082519 60 0 0.0 1.7 0.01 0.02 0.02 77 1019.5
20220523082019 60 0 0.0 1.7 0.02 0.02 0.02 76 1019.6
20220523081523 60 6 0.0 1.7 0.02 0.02 0.02 75 1019.6
20220523081017 60 0 0.0 1.7 0.02 0.02 0.02 74 1019.8
20220523080517 60 58 0.0 1.7 0.02 0.02 0.02 74 1019.8
20220523080027 60 11 0.0 2.6 0.02 0.02 0.02 73 1020.0
20220523075523 60 0 0.0 2.6 0.02 0.02 0.02 73 1020.0
20220523075018 60 0 0.9 2.6 0.02 0.02 0.02 72 1019.9
20220523074521 60 0 0.0 2.6 0.02 0.02 0.02 72 1020.0
20220523074027 61 0 0.0 1.7 0.01 0.01 0.01 72 1020.1
20220523073519 61 0 0.0 0.9 0.01 0.01 0.01 71 1020.1
20220523073024 61 0 0.0 0.9 0.01 0.01 0.01 71 1020.3
20220523072521 60 0 0.0 0.0 0.01 0.01 0.01 70 1020.5
20220523072023 60 0 0.0 0.9 0.00 0.00 0.00 70 1020.5
20220523071524 60 0 0.0 0.9 0.00 0.00 0.00 70 1020.7
20220523071017 61 0 0.0 0.9 0.00 0.00 0.00 70 1020.8
20220523070517 61 0 0.0 0.9 0.00 0.00 0.00 70 1020.8
20220523070024 61 0 0.0 0.9 0.00 0.00 0.00 69 1020.7
20220523065517 61 0 0.0 0.9 0.00 0.00 0.00 69 1020.8
20220523065017 61 0 0.0 0.9 0.00 0.00 0.00 69 1020.7
20220523064521 61 0 0.0 1.7 0.00 0.00 0.00 69 1020.8
20220523064019 61 28 0.0 2.6 0.00 0.00 0.00 68 1020.7
20220523063516 61 18 0.0 2.6 0.00 0.00 0.00 68 1020.6
20220523063025 61 77 0.0 1.7 0.00 0.00 0.00 68 1020.4
20220523062517 61 73 0.0 1.7 0.00 0.00 0.00 68 1020.4
20220523062016 61 98 0.0 2.6 0.00 0.00 0.00 67 1020.3
20220523061520 61 73 0.0 2.6 0.00 0.00 0.00 67 1020.3
20220523061018 61 94 0.9 2.6 0.00 0.00 0.00 67 1020.3
20220523060522 61 63 0.9 2.6 0.00 0.00 0.00 66 1020.3
20220523060031 61 69 0.0 1.7 0.00 0.00 0.00 66 1020.2
20220523055522 62 53 0.9 2.6 0.00 0.00 0.00 66 1020.2
20220523055018 62 76 0.0 3.5 0.00 0.00 0.00 66 1020.3
20220523054521 62 23 0.9 3.5 0.00 0.00 0.00 65 1020.3
20220523054018 62 57 0.9 3.5 0.00 0.00 0.00 66 1020.3
20220523053521 62 96 0.9 2.6 0.00 0.00 0.00 66 1020.3
20220523053033 62 79 0.9 2.6 0.00 0.00 0.00 65 1020.3
20220523052518 62 0 0.0 2.6 0.00 0.00 0.00 65 1020.5
20220523052020 62 79 0.0 2.6 0.00 0.00 0.00 65 1020.4
20220523051527 62 0 0.0 2.6 0.00 0.00 0.00 65 1020.4
20220523051017 62 79 0.9 2.6 0.00 0.00 0.00 64 1020.3
20220523050519 62 88 0.0 2.6 0.00 0.00 0.00 65 1020.5
20220523050034 62 56 0.9 2.6 0.00 0.00 0.00 64 1020.5
20220523045517 62 84 0.9 2.6 0.00 0.00 0.00 64 1020.6
20220523045018 62 56 0.9 2.6 0.00 0.00 0.00 64 1020.6
20220523044524 62 79 0.9 2.6 0.00 0.00 0.00 64 1020.6
20220523044018 62 0 0.9 3.5 0.00 0.00 0.00 64 1020.3
20220523043519 62 101 0.9 3.5 0.00 0.00 0.00 64 1020.3
20220523043025 62 63 0.9 2.6 0.00 0.00 0.00 64 1020.4
20220523042518 62 77 0.0 2.6 0.00 0.00 0.00 64 1020.5
20220523042019 62 93 0.9 2.6 0.00 0.00 0.00 65 1020.6
20220523041521 62 0 0.9 2.6 0.00 0.00 0.00 64 1020.6
20220523041018 62 69 0.9 2.6 0.00 0.00 0.00 65 1020.6
20220523040519 62 77 0.9 2.6 0.00 0.00 0.00 64 1020.5
20220523040026 62 78 0.9 2.6 0.00 0.00 0.00 65 1020.5
20220523035517 62 70 0.0 2.6 0.00 0.00 0.00 64 1020.6
20220523035016 62 65 0.0 2.6 0.00 0.00 0.00 64 1020.7
20220523034522 62 59 0.0 3.5 0.00 0.00 0.00 64 1020.6
20220523034017 62 61 0.9 3.5 0.00 0.00 0.00 64 1020.7
20220523033521 62 87 0.9 3.5 0.00 0.00 0.00 64 1020.7
20220523033031 62 88 0.9 3.5 0.00 0.00 0.00 63 1020.7
20220523032519 62 15 0.9 2.6 0.00 0.00 0.00 63 1020.8
20220523032021 62 53 0.9 2.6 0.00 0.00 0.00 64 1021.0
20220523031525 62 0 0.0 2.6 0.00 0.00 0.00 63 1021.2
20220523031022 62 77 0.9 2.6 0.00 0.00 0.00 64 1021.1
20220523030519 62 65 0.9 2.6 0.00 0.00 0.00 63 1021.1
20220523030029 62 261 0.0 3.5 0.00 0.00 0.00 63 1020.9
20220523025520 62 79 0.9 3.5 0.00 0.00 0.00 63 1020.8
20220523025020 62 54 0.9 3.5 0.00 0.00 0.00 63 1020.7
20220523024522 62 66 1.7 3.5 0.00 0.00 0.00 63 1020.8
20220523024022 62 93 0.9 3.5 0.00 0.00 0.00 62 1020.9
20220523023519 62 77 0.0 3.5 0.00 0.00 0.00 62 1020.7
20220523023024 62 300 0.9 3.5 0.00 0.00 0.00 62 1020.7
20220523022520 62 65 0.9 4.3 0.00 0.00 0.00 62 1020.7
20220523022020 63 270 0.0 4.3 0.00 0.00 0.00 62 1020.7
20220523021527 63 58 1.7 4.3 0.00 0.00 0.00 62 1020.6
20220523021020 63 70 0.9 4.3 0.00 0.00 0.00 62 1020.7
20220523020518 63 84 1.7 4.3 0.00 0.00 0.00 61 1020.8
20220523020034 63 92 1.7 4.3 0.00 0.00 0.00 61 1020.7
20220523015519 63 98 1.7 3.5 0.00 0.00 0.00 61 1020.7